Location: Darlington Observatory
(36.4817°N, 105.8156°W)
Time: 19:50:00
(UTC-07:00)

MOS 1 - Visible Passes

Search period start: 05 December 2016 00:00
Search period end: 15 December 2016 00:00
Orbit: 878 x 892 km, 99.3° (Epoch: 05 December)

Date Brightness Start Highest point End Pass type
(mag) Time Alt. Az. Time Alt. Az. Time Alt. Az.
05 Dec 4.4 06:23:49 10° NNE 06:29:30 83° ESE 06:35:09 10° SSW visible
05 Dec 4.9 17:52:30 10° S 17:58:05 61° WSW 18:03:41 10° NNW visible
06 Dec 4.5 06:22:06 10° NNE 06:27:46 80° ESE 06:33:25 10° SSW visible
06 Dec 4.8 17:50:46 10° S 17:56:21 63° WSW 18:01:58 10° NNW visible
07 Dec 4.5 06:20:23 10° NNE 06:26:03 77° ESE 06:31:42 10° S visible
07 Dec 4.8 17:49:01 10° S 17:54:38 66° WSW 18:00:16 10° NNW visible
08 Dec 4.6 06:18:40 10° NNE 06:24:19 75° ESE 06:29:58 10° S visible
08 Dec 4.7 17:47:17 10° S 17:52:54 68° WSW 17:58:32 10° NNW visible
09 Dec 4.7 06:16:56 10° NNE 06:22:36 72° ESE 06:28:14 10° S visible
09 Dec 4.6 17:45:33 10° S 17:51:11 71° WSW 17:56:50 10° NNW visible
10 Dec 4.7 06:15:14 10° NNE 06:20:52 69° ESE 06:26:30 10° S visible
10 Dec 4.6 17:43:49 10° S 17:49:27 74° WSW 17:55:07 10° NNW visible
11 Dec 4.8 06:13:31 10° NNE 06:19:09 66° ESE 06:24:46 10° S visible
11 Dec 4.5 17:42:04 10° S 17:47:43 77° WSW 17:53:24 10° NNW visible
12 Dec 4.9 06:11:48 10° NNE 06:17:25 64° ESE 06:23:01 10° S visible
12 Dec 4.5 17:40:21 10° S 17:46:00 79° WSW 17:51:41 10° NNW visible
13 Dec 4.9 06:10:05 10° NNE 06:15:41 61° ESE 06:21:17 10° S visible
13 Dec 4.4 17:38:38 10° SSE 17:44:17 82° WSW 17:49:57 10° NNW visible
14 Dec 5.0 06:08:22 10° NNE 06:13:58 59° ESE 06:19:31 10° S visible
14 Dec 4.4 17:36:54 10° SSE 17:42:33 85° WSW 17:48:14 10° NNW visible
